cover

 

Get it on iTunes StoreListen on Apple Music

Speed Limits

#Trackname / Key / BPM / Publish dateArtists, Remixers / Label
1 128 bpm, 12A / Db minor, 2018-09-28, Trance,  0  153
2 128 bpm, 7B / F major, 2018-09-28, Trance,  0  153
3 130 bpm, 12B / E major, 2018-07-06, Trance,  0  20
4 126 bpm, 7A / D minor, 2018-06-22, Trance,  0  20
5 122 bpm, 12A / Db minor, 2018-05-11, Deep House,  0  20
6 126 bpm, 7A / D minor, 2018-03-23, Trance,  0  20
7 126 bpm, 7A / D minor, 2018-02-09, Trance,  0  13
8 126 bpm, 7A / D minor, 2018-01-26, Trance,  0  20
9 126 bpm, 7A / D minor, 2017-12-01, Trance,  2  3
10 126 bpm, 7B / F major, 2017-11-24, Trance,  0  12
11 116 bpm, 6B / Bb major, 2017-11-17, Drum & Bass,  0  20
12 122 bpm, 12A / Db minor, 2017-02-17, Deep House,  0  20
13 116 bpm, 12A / Db minor, 2016-11-11, Drum & Bass,  0  20
14 100 bpm, 2A / Eb minor, 2016-10-07, Electronica,  0  20
15 128 bpm, 12A / Db minor, 2016-09-09, Trance,  0  20
16 130 bpm, 12B / E major, 2016-07-01, Trance,  0  20
17 128 bpm, 12A / Db minor, 2016-06-24, Trance,  0  20
18 128 bpm, 10B / D major, 2016-06-17, Trance,  0  26
19 128 bpm, 8B / C major, 2016-04-29, Trance,  0  20
20 122 bpm, 12A / Db minor, 2016-04-22, Deep House,  0  15
21 116 bpm, 12A / Db minor, 2016-04-15, Drum & Bass,  0  30
22 122 bpm, 12A / Db minor, 2016-03-25, Deep House,  0  32
23 116 bpm, 6B / Bb major, 2016-03-25, Drum & Bass,  0  30
24 122 bpm, 12A / Db minor, 2016-03-25, Deep House,  0  32
25 130 bpm, 5A / C minor, 2016-03-04, Trance,  0  30
26 130 bpm, 5A / C minor, 2016-02-26, Trance,  0  20
27 128 bpm, 6B / Bb major, 2016-02-12, Progressive House,  1  20
28 130 bpm, 5A / C minor, 2016-01-29, Trance,  0  25
29 128 bpm, 12A / Db minor, 2016-01-15, Big Room,  0  20
30 128 bpm, 6B / Bb major, 2016-01-08, Progressive House,  0  25
31 130 bpm, 5A / C minor, 2015-12-28, Trance,  0  10
32 128 bpm, 12A / Db minor, 2015-12-25, Big Room,  0  38
33 130 bpm, 5A / C minor, 2015-12-25, Trance,  0  38
34 130 bpm, 5A / C minor, 2015-12-11, Trance,  0  25
35 130 bpm, 12B / E major, 2015-11-20, Trance,  0  20
36 130 bpm, 5A / C minor, 2015-10-26, Trance,  7  1
37 128 bpm, 12A / Db minor, 2015-10-09, Trance,  0  35
38 128 bpm, 6B / Bb major, 2015-10-09, Big Room,  0  35
39 130 bpm, 12B / E major, 2015-10-09, Trance,  0  35
40 122 bpm, 12A / Db minor, 2015-08-21, Deep House,  1  15
41 116 bpm, 12A / Db minor, 2015-07-24, Drum & Bass,  0  20
42 116 bpm, 6B / Bb major, 2015-07-24, Drum & Bass,  0  20
43 122 bpm, 12A / Db minor, 2015-07-13, Deep House,  0  20
44 128 bpm, 6B / Bb major, 2015-07-06, Progressive House,  0  20
45 128 bpm, 6B / Bb major, 2015-07-03, Big Room,  0  50
46 128 bpm, 12A / Db minor, 2015-06-29, Trance,  0  20
47 128 bpm, 6B / Bb major, 2015-06-29, Big Room,  0  20
48 128 bpm, 8A / A minor, 2015-06-22, Big Room,  0  21
49 128 bpm, 8A / A minor, 2015-06-15, Progressive House,  0  20
50 122 bpm, 12A / Db minor, 2015-06-15, Deep House,  0  20
51 128 bpm, 6B / Bb major, 2015-06-08, Progressive House,  0  21
52 128 bpm, 8A / A minor, 2015-06-08, Progressive House,  0  20
53 128 bpm, 6B / Bb major, 2015-05-29, Big Room,  1  2
54 116 bpm, 6B / Bb major, 2015-05-29, Drum & Bass,  1  2
55 128 bpm, 12A / Db minor, 2015-05-25, Trance,  0  26
56 128 bpm, 6B / Bb major, 2015-05-25, Big Room,  0  26
57 128 bpm, 8A / A minor, 2015-05-25, Big Room,  0  26
58 128 bpm, / , 2015-05-25, Progressive House,  0  20
59 128 bpm, 12A / Db minor, 2015-05-25, Trance,  0  20
60 128 bpm, 12A / Db minor, 2015-05-25, Trance,  0  25
61 128 bpm, 8A / A minor, 2015-05-18, Big Room,  0  20
62 128 bpm, 12A / Db minor, 2015-05-18, Trance,  0  25
63 128 bpm, 8A / A minor, 2015-05-11, Big Room,  0  10
64 128 bpm, 9B / G major, 2015-05-11, Trance,  0  26
65 122 bpm, 12A / Db minor, 2015-05-04, Deep House,  0  27
66 130 bpm, 12B / E major, 2015-05-04, Trance,  0  20
67 128 bpm, 12A / Db minor, 2015-04-27, Big Room,  0  20
68 128 bpm, 12A / Db minor, 2015-04-20, Progressive House,  0  20
69 128 bpm, 8A / A minor, 2015-04-13, Big Room,  3  3
70 130 bpm, 12B / E major, 2015-04-13, Trance,  0  20
71 116 bpm, 12A / Db minor, 2015-04-13, Drum & Bass,  0  11
72 128 bpm, 6B / Bb major, 2015-04-06, Big Room,  1  21
73 128 bpm, 12A / Db minor, 2015-04-02, Trance,  0  25
74 128 bpm, 12A / Db minor, 2015-03-23, Trance,  0  20
75 128 bpm, 6B / Bb major, 2015-03-23, Progressive House,  0  42
76 128 bpm, 12A / Db minor, 2015-03-23, Progressive House,  0  42
77 128 bpm, 9B / G major, 2015-03-23, Trance,  0  42
78 130 bpm, 12A / Db minor, 2015-03-16, Trance,  0  25
79 130 bpm, 12B / E major, 2015-03-16, Trance,  0  21
80 128 bpm, 6B / Bb major, 2015-03-16, Big Room,  0  21
81 128 bpm, 6B / Bb major, 2015-03-09, Progressive House,  0  20
82 128 bpm, 12A / Db minor, 2015-03-09, Progressive House,  0  20
83 130 bpm, 12A / Db minor, 2015-03-06, Trance,  0  30
84 122 bpm, 12A / Db minor, 2015-03-02, Deep House,  0  20
85 128 bpm, 9B / G major, 2015-03-02, Trance,  0  20
86 130 bpm, 12A / Db minor, 2015-02-27, Trance,  0  20
87 128 bpm, 6B / Bb major, 2015-02-23, Big Room,  0  10
88 130 bpm, 12B / E major, 2015-02-23, Trance,  0  10
89 128 bpm, 12A / Db minor, 2015-02-23, Progressive House,  0  20
90 128 bpm, 9B / G major, 2015-02-23, Trance,  0  20
91 130 bpm, 12A / Db minor, 2015-02-20, Trance,  0  100
92 130 bpm, 12B / E major, 2015-02-16, Trance,  0  20
93 130 bpm, 12B / E major, 2015-02-16, Trance,  0  20
94 128 bpm, 9B / G major, 2015-02-16, Trance,  0  20
95 130 bpm, 12B / E major, 2015-02-09, Trance,  1  20
96 130 bpm, 12A / Db minor, 2015-02-06, Trance,  0  36
97 128 bpm, 6B / Bb major, 2015-02-02, Big Room,  7  1
98 128 bpm, 12A / Db minor, 2015-01-26, Trance,  1  10
99 128 bpm, 9B / G major, 2015-01-26, Trance,  0  10
100 130 bpm, 12B / E major, 2015-01-12, Trance,  6  6
×

Sign in

Sign in to access your personalized pages, follow artists and labels you love, and create playlists fromyour favorite tracks.

Please wait...